Regional Weather Roundup
Issued by NWS

Home | Current Version | Previous Version | Text Only | Print | Product List | Glossary On
Versions: 1 2 3 4 5 6 7 8 9 10 11 12 13 14 15 16 17 18 19 20 21 22 23 24 25 26 27 28 29 30 31 32 33 34 35 36 37 38 39 40 41 42 43 44 45 46 47 48 49 50
000
ASUS43 KBIS 251420
RWRND

NORTH DAKOTA REGIONAL WEATHER ROUNDUP
NATIONAL WEATHER SERVICE BISMARCK ND
900 AM CDT FRI JUL 25 2014

NOTE: "FAIR" INDICATES FEW OR NO CLOUDS BELOW 12,000 FEET WITH NO
SIGNIFICANT WEATHER AND/OR OBSTRUCTIONS TO VISIBILITY.


NDZ001>003-009>011-017-251500-
NORTHWEST NORTH DAKOTA

CITY           SKY/WX    TMP DP  RH WIND       PRES   REMARKS
WILLISTON      SUNNY     61  50  67 W12       29.88R
MINOT          SUNNY     66  50  56 SW9       29.83R
MINOT AFB      SUNNY     64  56  74 W10       29.82S
$$

NDZ018>021-031>035-040>046-251500-
SOUTHWEST NORTH DAKOTA

CITY           SKY/WX    TMP DP  RH WIND       PRES   REMARKS
BISMARCK       SUNNY     70  59  68 NW15      29.84R
DICKINSON      SUNNY     62  50  64 W10       29.92R
GARRISON         N/A     64  54  69 NW10      29.86R
HETTINGER ARPT SUNNY     64  46  52 NW9       29.95R
$$

NDZ004>008-012>016-024-026-027-054-251500-
NORTHEAST NORTH DAKOTA

CITY           SKY/WX    TMP DP  RH WIND       PRES   REMARKS
GRAND FORKS    MOSUNNY   71  63  75 NW6       29.75R
GRND FRKS AFB  MOSUNNY   71  66  86 NW7       29.77R
DEVILS LAKE    MOSUNNY   70  63  78 NW8       29.76S
$$

NDZ022-023-025-028>030-036>039-047>053-251500-
SOUTHEAST NORTH DAKOTA

CITY           SKY/WX    TMP DP  RH WIND       PRES   REMARKS
FARGO          SUNNY     71  63  75 S24       29.70F
JAMESTOWN      CLOUDY    66  63  90 W13G22    29.80R
$$



USA.gov is the U.S. government's official web portal to all federal, state and local government web resources and services.